Location: Julian California
(33.0790°N, 116.6010°W)
Time: 15:01:17
(UTC-07:00)

Cosmos 1680 Rocket - Pass Details

Date: 14 June 2018
Orbit: 759 x 782 km, 74.1° (Epoch: 16 August)

Event Time Altitude Azimuth Distance (km) Brightness Sun altitude
Rises 20:44:55 0° 206° (SSW) 3,199 6.6 -9.4°
Reaches altitude 10° 20:47:19 10° 210° (SSW) 2,278 5.9 -9.8°
Maximum altitude 20:52:23 57° 289° (WNW) 894 4.2 -10.7°
Drops below altitude 10° 20:57:30 10° 8° (N) 2,299 6.4 -11.5°
Sets 20:59:56 0° 12° (NNE) 3,231 7.1 -11.9°
